Flag for Germany Weather past 2 weeks in Bayreuth, Bavaria, Germany

Now
51 °F

Passing clouds.


Feels Like: 51 °F
Forecast: 51 / 78 °F
Wind: No wind

Location: Grafenwoehr

Current Time: Jul 24, 2014 at 5:23:41 AM

Latest Report: Jul 24, 2014 at 4:58 AM


Visibility: N/A

Pressure: 29.93 "Hg

Humidity: 94%

Dew point: 49 °F

Location of BayreuthLocation

Historic Weather in Bayreuth — Graph

°F

Bayreuth temperature yesterday

Maximum temperature yesterday: 81 °F (at 5:58 PM)
Minimum temperature yesterday: 55 °F (at 5:58 AM)
Average temperature yesterday: 69 °F

Past Weeks' High & Low Weather Summary

 TemperatureHumidityPressure
High90 °F (Jul 20, 3:58 PM)100% (Jul 12, 4:58 AM)30.16 "Hg (Jul 12, 4:58 AM)
Low52 °F (Jul 9, 9:58 PM)29% (Jul 18, 6:58 PM)29.65 "Hg (Jul 9, 3:58 AM)
Average65 °F76%29.93 "Hg
* Reported Jul 9 3:58 AM — Jul 24 3:58 AM, Bayreuth, Weather by CustomWeather, © 2014

Note: Actual official high and low records may vary slightly from our data, if they occured in-between our weather recording intervals... More about our weather records

Advertising

Bayreuth weather history for previous 24 hours

 ConditionsComfort  
Time TempWeatherWind HumidityBarometerVisibility
3:58 AM
Jul 24
52 °FClear.No wind92%29.92 "HgN/A
2:58 AM54 °FClear.2 mph94%29.92 "HgN/A
1:58 AM54 °FClear.No wind94%29.93 "HgN/A
12:58 AM57 °FClear.2 mph88%29.94 "HgN/A
11:58 PM
Jul 23
61 °FClear.No wind77%29.94 "HgN/A
10:58 PM62 °FClear.No wind72%29.95 "HgN/A
9:58 PM66 °FSunny.No wind68%29.94 "HgN/A
8:58 PM73 °FSunny.No wind44%29.93 "HgN/A
7:58 PM77 °FScattered clouds.3 mph41%29.94 "HgN/A
6:58 PM80 °FSunny.1 mph36%29.94 "HgN/A
5:58 PM81 °FScattered clouds.3 mph39%29.94 "HgN/A
4:59 PM75 °FBroken clouds.No wind44%29.99 "HgN/A
3:58 PM79 °FPassing clouds.3 mph42%29.96 "HgN/A
2:58 PM79 °FBroken clouds.6 mph39%29.98 "HgN/A
12:58 PM77 °FScattered clouds.3 mph42%29.97 "HgN/A
11:58 AM79 °FPassing clouds.6 mph45%29.97 "HgN/A
10:58 AM77 °FPassing clouds.3 mph51%29.99 "HgN/A
9:58 AM74 °FSunny.2 mph57%29.99 "HgN/A
7:58 AM61 °FSunny.No wind88%30.01 "HgN/A
6:58 AM57 °FSunny.No wind88%30.01 "HgN/A
5:58 AM55 °FClear.No wind92%30.01 "HgN/A
Weather by CustomWeather, © 2014

See weather overviewHow to use our weather pages